Showing default

GARAI-B, 68463

Orbit data source: Space-Track

GARAI-B, 68463 is a payload satellite owned by Satlantis (SE) in SSO that was launched on Mon, 30 Mar 2026 UTC via an FALCON 9 launch vehicle from the Air Force Western Test Range (AFWTR). Payload-class satellites include a variety of spacecraft equipped with specific instruments for various scientific and technological missions. These include communications satellites like Starlink; space stations such as the ISS; scientific satellites like the Hubble; Earth observation satellites from companies like Planet Labs, Umbra, and HawkEye 360; GPS; miniature CubeSats for education and research; and military/defense satellites.

Loading next visibility...
Identifier
68463, 2026-067AZ
Orbit
SSO
Country
Flag of SESE / SWED
Related business
Manufacturer
OHB-SE
Mission
Operational Commercial Imaging
Bus & Motor
INNOSAT, Unknown motor
Mass
115 kg wet, 115 kg dry
Launch date (UTC)
2026-03-30 (6 months ago)
Launch vehicle
FALCON 9
Launch site
Air Force Western Test Range (AFWTR)
Object type
Payload
Rocket body
Debris
Shape & HBR
Box, 2.7 m
Radar Cross Section
1.305 m², Large (>1 m²)

Expand to show TLE details & history
Last TLE update: 1 day ago

TLE from 1 day ago
0 GARAI-B
1 68463U 26067AZ  26262.31311906  .00003472  00000-0  19219-3 0  9991
2 68463  97.4633 219.1639 0005138  99.3417 260.8396 15.14486275 26209
Epoch: 2026-09-19T07:30Z
TLE epoch observation values (Epoch: 2026-09-19T07:30:53.486Z)
Latitude
-0.00005°
Longitude
108.2176°
Altitude
526.186 km
Speed
7.6 km/s
True Right ascension
14h 36m 39s
True Declination
0° 00' 00"
Sunlit
Object was in daylight at epoch
Visualization orbit readout
Latitude
Unknown
Longitude
Unknown
Altitude
Unknown
Speed
Unknown
Apparent Right ascension
Unknown
Apparent Declination
Unknown
Sunlit
N/A
Visualization observer readout
Local Sidereal Time
09:41:30
Azimuth
Unknown
Elevation
Unknown
Doppler factor
Unknown
Orbital elements
Apogee altitude
523.058 km
Perigee altitude
515.97 km
Semi-major axis
6,897.651 km
Eccentricity
0.00051
Inclination
97.4633°
RAAN
219.1639°
Arg. of periapsis
99.3417°
True anomaly
260.78148°
Mean anomaly
260.8396°
Eccentric anomaly
260.81054°
Mean motion
3.78871 °/min
Orbital period
95.02 mins
BSTAR
0.00019219
Loading maneuver chart data...
Computing Atmospheric mass density...
Loading historical data...
Loading historical data...
Loading historical data...
Loading historical data...
Loading historical data...
Loading historical data...
Loading historical data...

Documentation

Showing up to 5 results
|